ON4LDM-13 Weather Reports


time (UTC)temp
C
wind
direction
speed
KPH
gust
KPH
rain 1hr
cm
rain 24hr
cm
rain mn
cm
humidity
%
barometer
mb
20260507094003 11 125 1.6 4.8 0.00 0.00 0.00 80 1016.0
20260507093503 10 49 1.6 4.8 0.00 0.00 0.00 80 1016.0
20260507092503 10 27 3.2 6.4 0.00 0.00 0.00 81 1016.1
20260507092003 10 328 3.2 8.0 0.00 0.00 0.00 80 1015.9
20260507091503 10 345 4.8 12.9 0.00 0.00 0.00 79 1015.9
20260507091004 10 334 4.8 12.9 0.00 0.00 0.00 81 1015.9
20260507090504 10 335 4.8 9.7 0.00 0.00 0.00 81 1015.8
20260507090003 10 344 3.2 9.7 0.00 0.00 0.00 80 1015.7
20260507085503 10 351 3.2 6.4 0.00 0.00 0.00 79 1015.7
20260507085003 10 339 3.2 8.0 0.00 0.00 0.00 80 1015.6
20260507084503 10 340 3.2 11.3 0.00 0.00 0.00 82 1015.6
20260507084003 10 349 4.8 11.3 0.00 0.00 0.00 80 1015.6
20260507083503 10 350 4.8 12.9 0.00 0.00 0.00 81 1015.5
20260507083004 10 332 4.8 12.9 0.00 0.00 0.00 81 1015.6
20260507082503 10 324 4.8 9.7 0.00 0.00 0.00 81 1015.6
20260507081003 9 343 3.2 9.7 0.00 0.00 0.00 84 1015.4
20260507080504 9 349 3.2 9.7 0.00 0.00 0.00 83 1015.4
20260507080004 9 344 3.2 12.9 0.00 0.00 0.00 84 1015.4
20260507075503 8 340 3.2 12.9 0.00 0.00 0.00 85 1015.6
20260507075003 8 351 3.2 12.9 0.00 0.00 0.00 85 1015.5
20260507074503 8 350 3.2 12.9 0.00 0.00 0.00 86 1015.4
20260507074003 8 352 3.2 9.7 0.00 0.00 0.00 86 1015.3
20260507073504 8 354 4.8 9.7 0.00 0.00 0.00 86 1015.3
20260507073004 8 349 4.8 9.7 0.00 0.00 0.00 86 1015.3
20260507072503 8 349 3.2 8.0 0.00 0.00 0.00 86 1015.2
20260507072004 8 352 3.2 6.4 0.00 0.00 0.00 87 1015.2
20260507071503 8 353 1.6 6.4 0.00 0.00 0.00 87 1015.2
20260507071003 8 351 3.2 8.0 0.00 0.00 0.00 87 1015.2
20260506234003 7 0 0.0 0.0 0.00 0.10 0.00 90 1012.2
20260506233503 7 0 0.0 0.0 0.00 0.10 0.00 90 1012.2
20260506233004 7 0 0.0 0.0 0.00 0.10 0.00 89 1012.2
20260506232504 7 0 0.0 0.0 0.00 0.10 0.00 89 1012.2
20260506232003 7 0 0.0 0.0 0.00 0.10 0.00 89 1012.2
20260506231003 7 311 0.0 3.2 0.00 0.13 0.00 89 1012.1
20260506230503 7 294 1.6 6.4 0.00 0.13 0.00 89 1012.2
20260506225504 7 313 1.6 4.8 0.00 0.15 0.00 89 1012.1
20260506225004 7 348 1.6 6.4 0.00 0.15 0.00 89 1012.1
20260506224503 7 346 1.6 6.4 0.00 0.15 0.00 89 1011.9
20260506224004 7 335 1.6 4.8 0.00 0.15 0.00 89 1011.9
20260506223504 7 341 1.6 6.4 0.00 0.15 0.00 89 1011.9
20260506222003 7 347 0.0 4.8 0.00 0.15 0.00 90 1011.6
20260506220504 7 0 0.0 0.0 0.00 0.15 0.00 90 1011.5
20260506220006 8 0 0.0 0.0 0.00 0.15 0.00 90 1011.6
20260506215503 8 302 0.0 1.6 0.00 0.15 0.15 90 1011.6
20260506215004 8 302 0.0 1.6 0.00 0.15 0.15 90 1011.6
20260506214504 8 0 0.0 0.0 0.00 0.15 0.15 90 1011.6
20260506213504 8 0 0.0 0.0 0.00 0.15 0.15 90 1011.5
20260506213004 8 0 0.0 0.0 0.00 0.15 0.15 89 1011.5
20260506212503 8 292 0.0 3.2 0.00 0.15 0.15 89 1011.4
20260506212004 8 299 0.0 3.2 0.00 0.15 0.15 90 1011.4
20260506211503 8 305 0.0 4.8 0.00 0.15 0.15 89 1011.4
20260506211004 8 300 0.0 6.4 0.00 0.15 0.15 89 1011.3
20260506210504 8 296 0.0 6.4 0.00 0.15 0.15 89 1011.3
20260506210004 8 293 0.0 3.2 0.00 0.15 0.15 89 1011.3
20260506205004 8 297 0.0 1.6 0.00 0.15 0.15 89 1011.1
20260506204504 8 297 0.0 1.6 0.00 0.15 0.15 88 1011.2
20260506204004 8 296 0.0 3.2 0.00 0.15 0.15 88 1011.2
20260506203504 8 296 0.0 3.2 0.00 0.15 0.15 88 1011.1
20260506203004 8 0 0.0 0.0 0.00 0.15 0.15 88 1011.1
20260506202004 8 0 0.0 0.0 0.00 0.20 0.15 87 1011.0
20260506201503 8 0 0.0 0.0 0.00 0.20 0.15 87 1011.0
20260506200503 8 0 0.0 0.0 0.00 0.23 0.15 87 1010.8
20260506200004 8 0 0.0 0.0 0.00 0.23 0.15 87 1010.8
20260506195504 8 0 0.0 0.0 0.00 0.23 0.15 87 1010.7
20260506195004 8 329 0.0 1.6 0.00 0.25 0.15 87 1010.7
20260506194004 8 338 1.6 3.2 0.00 0.28 0.15 86 1010.5
20260506193504 8 348 1.6 6.4 0.00 0.30 0.15 86 1010.4
20260506193005 8 343 1.6 6.4 0.00 0.30 0.15 86 1010.3
20260506192503 9 331 1.6 4.8 0.00 0.33 0.15 85 1010.2
20260506192004 9 335 1.6 6.4 0.00 0.33 0.15 85 1010.1
20260506191503 9 338 1.6 6.4 0.00 0.36 0.15 85 1010.2
20260506191004 9 342 0.0 6.4 0.00 0.36 0.15 85 1010.1
20260506190503 9 40 0.0 3.2 0.00 0.38 0.15 85 1010.1
20260506190004 9 314 1.6 4.8 0.00 0.41 0.15 85 1010.1
20260506185505 9 311 1.6 4.8 0.00 0.43 0.15 84 1010.0
20260506183005 9 347 3.2 8.0 0.00 0.58 0.15 84 1009.6
20260506182505 9 348 4.8 11.3 0.00 0.61 0.15 84 1009.6
20260506182004 9 340 3.2 11.3 0.00 0.61 0.15 84 1009.6
20260506181505 10 330 3.2 11.3 0.00 0.71 0.15 84 1009.5
20260506181004 10 338 3.2 8.0 0.00 0.79 0.15 84 1009.4
20260506180005 10 344 3.2 9.7 0.00 0.84 0.15 85 1009.3
20260506175504 10 336 3.2 8.0 0.00 0.84 0.15 85 1009.3
20260506174505 10 351 4.8 12.9 0.00 0.89 0.15 85 1009.3
20260506174005 10 348 4.8 12.9 0.00 0.89 0.15 85 1009.3
20260506173508 10 344 4.8 8.0 0.00 0.89 0.15 84 1009.4
20260506172504 10 342 4.8 12.9 0.00 0.89 0.15 84 1009.3
20260506172004 10 344 6.4 16.1 0.00 0.89 0.15 84 1009.3
20260506171004 10 343 3.2 9.7 0.00 0.89 0.15 84 1009.3
20260506170504 10 348 4.8 11.3 0.00 0.89 0.15 84 1009.2
20260506165504 10 348 4.8 14.5 0.00 0.89 0.15 83 1009.0
20260506165005 10 345 4.8 16.1 0.00 0.89 0.15 83 1009.1
20260506164004 10 356 4.8 12.9 0.00 0.89 0.15 83 1009.0
20260506163504 10 359 4.8 12.9 0.00 0.91 0.15 83 1008.9
20260506163004 10 2 3.2 9.7 0.00 0.91 0.15 84 1008.9
20260506162504 10 339 3.2 9.7 0.00 0.91 0.15 84 1008.9
20260506162004 10 346 4.8 12.9 0.00 0.91 0.15 84 1008.9
20260506161504 10 356 4.8 14.5 0.00 0.91 0.15 83 1008.9
20260506161004 11 355 4.8 14.5 0.00 0.91 0.15 83 1008.9
20260506160504 11 348 6.4 16.1 0.00 0.94 0.15 83 1008.8
20260506160004 11 347 4.8 16.1 0.00 0.94 0.15 82 1008.8
20260506155503 11 357 4.8 9.7 0.00 0.94 0.15 83 1008.8
20260506155004 11 352 6.4 12.9 0.00 0.97 0.15 83 1008.7
20260506154504 11 350 6.4 20.9 0.00 0.97 0.15 83 1008.7
20260506154004 11 353 4.8 20.9 0.00 0.97 0.15 83 1008.8
20260506153004 11 353 4.8 11.3 0.00 0.99 0.15 84 1008.6
20260506152004 10 345 4.8 14.5 0.00 0.99 0.15 84 1008.5
20260506151504 10 346 4.8 14.5 0.00 0.99 0.15 85 1008.5
20260506150004 10 346 6.4 14.5 0.00 0.99 0.15 85 1008.6
20260506145504 11 343 6.4 14.5 0.00 0.99 0.15 84 1008.5
20260506145004 11 347 4.8 14.5 0.00 1.02 0.15 84 1008.5
20260506144504 11 355 4.8 14.5 0.00 1.02 0.15 83 1008.4
20260506143504 11 347 4.8 16.1 0.00 1.02 0.15 84 1008.4
20260506143004 11 356 3.2 11.3 0.00 1.04 0.15 85 1008.5
20260506142004 11 340 3.2 9.7 0.00 1.04 0.15 85 1008.6
20260506141504 11 326 3.2 9.7 0.00 1.07 0.15 86 1008.6
20260506141003 11 334 3.2 9.7 0.00 1.07 0.15 86 1008.6
20260506140504 10 347 4.8 11.3 0.00 1.07 0.15 87 1008.6
20260506140004 10 347 4.8 11.3 0.00 1.07 0.15 87 1008.6
20260506135503 10 341 3.2 11.3 0.00 1.07 0.15 87 1008.6
20260506135004 10 333 3.2 8.0 0.00 1.09 0.15 86 1008.5
20260506134504 11 346 3.2 8.0 0.00 1.09 0.15 86 1008.6
20260506134003 11 349 4.8 9.7 0.00 1.09 0.15 85 1008.5
20260506132503 10 351 3.2 11.3 0.00 1.09 0.15 87 1008.5
20260506131510 10 345 4.8 9.7 0.00 1.09 0.15 87 1008.4
20260506131005 10 342 4.8 9.7 0.00 1.09 0.15 87 1008.5
20260506130511 10 345 3.2 8.0 0.00 1.12 0.15 87 1008.4
20260506125506 10 340 3.2 11.3 0.00 1.14 0.15 87 1008.3
20260506125004 10 347 4.8 12.9 0.00 1.17 0.15 86 1008.3
20260506124504 10 352 4.8 14.5 0.00 1.22 0.15 87 1008.2
20260506124004 10 352 4.8 14.5 0.00 1.27 0.15 87 1008.2
20260506123504 10 352 3.2 9.7 0.00 1.37 0.15 87 1008.2
20260506123004 10 357 3.2 16.1 0.00 1.50 0.15 87 1008.1
20260506122503 10 354 4.8 16.1 0.00 1.55 0.15 87 1007.9
20260506122004 10 341 4.8 12.9 0.00 1.57 0.15 87 1008.0
20260506121504 10 321 4.8 12.9 0.00 1.63 0.15 87 1007.9
20260506120503 10 336 4.8 14.5 0.00 1.70 0.15 87 1007.9
20260506120004 11 341 4.8 14.5 0.00 1.75 0.15 86 1007.9
20260506115004 11 348 4.8 9.7 0.00 1.80 0.15 87 1007.7
20260506114503 11 345 4.8 9.7 0.00 1.83 0.15 87 1007.7
20260506114003 10 345 4.8 9.7 0.00 1.83 0.15 87 1007.6
20260506113504 11 346 3.2 6.4 0.00 1.83 0.15 87 1007.7
20260506112503 10 354 4.8 9.7 0.00 1.83 0.15 88 1007.6
20260506111504 10 348 3.2 12.9 0.00 1.83 0.15 88 1007.6
20260506111004 10 337 3.2 6.4 0.00 1.83 0.15 89 1007.5
20260506110004 10 333 3.2 6.4 0.00 1.83 0.15 89 1007.4
20260506105503 10 339 3.2 6.4 0.00 1.83 0.15 89 1007.4
20260506104504 10 348 3.2 14.5 0.00 1.83 0.15 89 1007.4
20260506104004 10 342 4.8 14.5 0.00 1.83 0.15 89 1007.3
20260506103504 10 341 4.8 12.9 0.00 1.83 0.15 88 1007.3
20260506103004 10 340 3.2 12.9 0.00 1.83 0.15 89 1007.3
20260506102504 10 342 4.8 12.9 0.00 1.83 0.15 89 1007.4
20260506101004 10 346 4.8 12.9 0.00 1.83 0.15 88 1007.2
20260506100503 11 340 4.8 12.9 0.00 1.83 0.15 89 1007.1
20260506100004 11 351 6.4 16.1 0.00 1.83 0.15 90 1007.0
20260506095504 11 354 6.4 16.1 0.00 1.83 0.15 90 1007.0
20260506095005 10 348 4.8 11.3 0.00 1.83 0.15 91 1007.0